CST,Max TemperatureF,Mean TemperatureF,Min TemperatureF,Max Dew PointF,MeanDew PointF,Min DewpointF,Max Humidity, Mean Humidity, Min Humidity, Max Sea Level PressureIn, Mean Sea Level PressureIn, Min Sea Level PressureIn, Max VisibilityMiles, Mean VisibilityMiles, Min VisibilityMiles, Max Wind SpeedMPH, Mean Wind SpeedMPH, Max Gust SpeedMPH,PrecipitationIn, CloudCover, Events, WindDirDegrees
2010-11-1,60,52,45,45,35,31,95,54,40,30.31,30.18,30.11,10,10,4,14,9,16,0.10,6,Rain,69
2010-11-2,57,49,42,43,38,30,100,75,38,30.30,30.24,30.19,10,9,4,12,6,,0.57,6,Rain,27
2010-11-3,64,48,32,36,30,20,99,49,19,30.17,30.09,30.01,10,9,2,15,6,23,0.00,0,,331
2010-11-4,55,48,41,35,27,20,72,45,29,30.08,30.02,29.97,10,10,10,25,13,33,0.00,3,,318
2010-11-5,47,38,30,23,19,14,69,46,27,30.24,30.15,30.05,10,10,10,15,9,23,0.00,0,,309
2010-11-6,58,42,27,22,18,15,72,41,19,30.39,30.33,30.26,10,10,10,7,2,,0.00,0,,175
2010-11-7,72,52,34,30,25,21,68,37,20,30.34,30.25,30.11,10,10,5,10,7,,0.00,0,,172
2010-11-8,74,61,48,40,34,26,51,38,24,30.08,29.97,29.89,10,9,4,10,7,24,0.00,0,,186
2010-11-9,73,58,44,47,41,38,79,53,30,29.97,29.92,29.87,10,8,2,13,8,20,0.00,0,,168
2010-11-10,73,64,54,56,51,42,91,66,42,30.11,29.99,29.93,10,10,10,14,8,21,0.00,1,,170
2010-11-11,72,62,52,57,54,49,100,80,57,30.28,30.22,30.12,10,10,5,8,5,,0.00,3,,107
2010-11-12,71,60,50,52,44,40,86,54,34,30.23,30.11,29.96,10,10,10,16,10,26,0.00,6,Rain,155
2010-11-13,56,46,34,52,40,32,100,86,74,30.11,30.06,29.97,10,10,10,15,10,23,0.00,7,,256
2010-11-14,54,42,29,32,30,28,99,68,36,30.12,30.04,29.94,10,10,10,9,4,,0.00,2,,204
2010-11-15,58,47,36,36,33,31,84,62,38,29.92,29.85,29.80,10,8,4,8,6,,0.00,5,,156
2010-11-16,57,50,40,41,36,31,86,70,38,29.86,29.73,29.65,10,6,2,13,3,20,0.00,6,,264
2010-11-17,57,45,33,45,41,33,100,87,56,30.23,30.09,29.88,10,10,7,12,6,,0.14,6,Rain,34
2010-11-18,41,39,37,39,36,31,100,92,69,30.40,30.30,30.22,10,9,3,12,8,,0.00,8,,355
2010-11-19,59,48,36,41,38,34,100,77,44,30.25,30.14,30.05,10,10,10,13,9,22,0.00,1,,176
2010-11-20,59,46,33,50,40,34,100,93,51,30.17,30.12,30.02,10,5,0,14,8,18,0.00,3,Fog,144
2010-11-21,70,62,53,60,55,50,94,83,63,30.04,29.94,29.86,10,10,10,17,10,28,0.00,7,,185
2010-11-22,72,56,39,63,56,38,100,86,61,30.04,29.84,29.73,10,10,2,20,13,31,0.17,6,Rain-Thunderstorm,205
2010-11-23,49,40,32,38,34,31,100,87,53,30.26,30.16,30.04,10,10,10,12,7,,0.00,4,,22
2010-11-24,66,52,37,64,51,30,100,97,65,30.07,29.77,29.55,10,6,0,22,10,33,1.64,7,Fog-Rain-Thunderstorm,162
2010-11-25,57,40,22,57,42,20,100,98,86,30.13,29.81,29.65,10,5,2,17,6,23,1.39,7,Rain-Snow-Thunderstorm,323
2010-11-26,46,32,19,27,21,16,93,67,32,30.19,30.12,30.05,10,10,10,12,5,20,0.00,0,,246
2010-11-27,53,42,30,29,25,22,78,57,30,30.21,30.15,30.09,10,10,4,8,4,,0.00,0,,202
2010-11-28,56,44,31,33,30,26,93,61,31,30.13,30.01,29.87,10,10,10,20,11,30,0.00,1,,144
2010-11-29,50,43,36,49,42,31,100,85,59,29.86,29.74,29.66,10,10,9,23,14,30,0.01,7,Rain,168
2010-11-30,35,30,25,29,20,15,79,68,60,30.09,29.99,29.82,10,10,7,17,11,26,0.00,7,,272